Regional Weather Roundup
Issued by NWS

Home | Current Version | Previous Version | Graphics & Text | Print | Product List | Glossary On
Versions: 1 2 3 4 5 6 7 8 9 10 11 12 13 14 15 16 17 18 19 20 21 22 23 24 25 26 27 28 29 30 31 32 33 34 35 36 37 38 39 40 41 42 43 44 45 46 47 48 49 50
000
ASUS43 KLOT 210208
RWRIL

ILLINOIS REGIONAL WEATHER ROUNDUP
NATIONAL WEATHER SERVICE CHICAGO/ROMEOVILLE IL
900 PM CDT SUN MAY 20 2018

NOTE: "FAIR" INDICATES FEW OR NO CLOUDS BELOW 12,000 FEET WITH NO
SIGNIFICANT WEATHER AND/OR OBSTRUCTIONS TO VISIBILITY.

* THESE STATIONS ARE NOT UNDER NWS QUALITY CONTROL. THEY ALSO MAY NOT
  REPORT WEATHER SUCH AS PRECIPITATION OR FOG.

ILZ001-002-007-009-015-016-024-210300-
NORTHWEST ILLINOIS

CITY           SKY/WX    TMP DP  RH WIND       PRES   REMARKS
MOLINE         CLOUDY    62  55  77 E17       30.09F
SAVANNA*       CLOUDY    58  53  85 E13       30.15S
$$

ILZ003-004-008-010-011-017-018-210300-
NORTH CENTRAL ILLINOIS

CITY           SKY/WX    TMP DP  RH WIND       PRES   REMARKS
ROCKFORD       CLOUDY    54  46  74 E6        30.20R
FREEPORT*      CLOUDY    55  51  87 E7        30.19R
ROCHELLE*      CLOUDY    55  51  87 E10       30.17S
DE KALB*       CLOUDY    53  49  86 E7        30.19R
PERU*          CLOUDY    59  51  76 E12G18    30.15R
$$

ILZ005-006-012>014-019>023-210300-
NORTHEAST ILLINOIS

CITY           SKY/WX    TMP DP  RH WIND       PRES   REMARKS
CHICAGO-OHARE  CLOUDY    48  41  76 N6        30.18S
CHICAGO-MIDWAY CLOUDY    49  43  80 N9        30.17S
AURORA         CLOUDY    53  46  77 E7        30.17S
LANSING*       CLOUDY    47  46  98 CALM      30.18R
JOLIET*        CLOUDY    52  48  87 NE8       30.16S
WAUKEGAN       CLOUDY    47  41  80 NE5       30.19R
DUPAGE AIRPORT CLOUDY    50  44  80 NE9       30.18R
KANKAKEE*      CLOUDY    51  49  92 NE8       30.16R
WHEELING       CLOUDY    48  42  80 N5        30.21R
MORRIS*        CLOUDY    53  47  81 NE6       30.16R
ROMEOVILLE*    CLOUDY    50  46  84 NE8       30.17S
NORTHERLY ISL    N/A     46  43  89 N6          N/A
$$

LMZ740>746-210300-
SOUTHERN LAKE MICHIGAN

STATION/POSITION SKY/WX   TEMP    WIND        PRES    VSBY  WAVE
                          AIR SEA DIR/SP/G                  HT/PER
                          (F)     (DEG/KT/KT) (MB)    (MI)  (FT/S)
WILMETTE HARBOR            43 46  330/  8/ 12   N/A           3/ 5
HARRISON CRIB              45     340/ 11/ 11   N/A
BURNHAM HARBOR             46     340/  4/  8   N/A
CALUMET HARBOR             45     330/  8/ 12 1021.3F
BURNS HARBOR               46     330/  9/ 11 1022.0R
MICHIGAN CITY              48     310/  9/ 10   N/A
MICHIGAN CITY 6N           45 52  350/  8/ 10   N/A           3/ 5
ST. JOSEPH                 51 53   40/ 14/ 17 1021.2          2/ 5
$$

ILZ025>027-034>036-040-047-049-050-058-095>099-210300-
WEST-CENTRAL ILLINOIS

CITY           SKY/WX    TMP DP  RH WIND       PRES   REMARKS
QUINCY         CLOUDY    71  63  75 SE5       30.05R
GALESBURG*     FAIR      62  55  79 NE10      30.10R
MACOMB*        CLOUDY    64  55  73 NE8       30.09R
JACKSONVILLE*  PTCLDY    71  62  75 CALM      30.05R
PITTSFIELD*    CLOUDY    72  67  83 CALM      30.06R
$$

ILZ028>032-037-038-041>044-048-051>054-059>061-210300-
CENTRAL ILLINOIS

CITY           SKY/WX    TMP DP  RH WIND       PRES   REMARKS
PONTIAC        CLOUDY    56  52  85 NE16      30.14R
BLOOMINGTON    FAIR      65  57  75 NE14      30.11R
DECATUR        MOCLDY    70  62  76 NE6       30.08R
PEORIA         FAIR      68  57  68 NE9       30.08R
LACON*         FAIR      61  53  75 NE10      30.11R
LINCOLN*       FAIR      69  58  68 NE5       30.08R
SPRINGFIELD    FAIR      73  67  81 S5        30.05R
TAYLORVILLE    FAIR      71  69  92 CALM      30.06R
$$

ILZ033-039-045-046-055>057-062-063-210300-
EAST-CENTRAL ILLINOIS

CITY           SKY/WX    TMP DP  RH WIND       PRES   REMARKS
CHAMPAIGN      FAIR      69  62  78 NE10      30.08R
DANVILLE*      FAIR      67  64  87 NE7       30.07R
RANTOUL*       FAIR      70  63  79 NE8       30.10R
MATTOON        FAIR      74  67  78 CALM      30.05R
PARIS*         FAIR      72  67  85 N6        30.08R
$$

ILZ079-100>102-210300-
SOUTHWEST ILLINOIS

CITY           SKY/WX    TMP DP  RH WIND       PRES   REMARKS
ALTON          CLEAR     70  64  83 CALM      30.04R
BELLEVILLE     CLEAR     74  68  82 E6        30.02R
CAHOKIA*       PTCLDY    73  68  84 CALM      30.02S
SPARTA*        PTCLDY    72  70  95 SE5       30.06R
$$

ILZ064>066-069>071-074>076-080>082-084>086-088>090-092>094-210300-
SOUTH-CENTRAL ILLINOIS

CITY           SKY/WX    TMP DP  RH WIND       PRES   REMARKS
CARBONDALE     FAIR      67  66  97 SE3       30.06R
CAIRO*         FAIR      69  68  98 NW5       30.06R
EFFINGHAM*     FAIR      73  70  92 CALM      30.07R
MARION         FAIR      67  66  97 S6        30.08R
CENTRALIA*     CLOUDY    73  71  91 S3        30.05R
SALEM*         FAIR      76  67  74 CALM      30.06R
$$

ILZ067-068-072-073-078-083-087-091-210300-
SOUTHEAST ILLINOIS

CITY           SKY/WX    TMP DP  RH WIND       PRES   REMARKS
LAWRENCEVILLE  FAIR      77  68  73 N5        30.04S
FLORA*         FAIR      75  69  81 CALM      30.05R
FAIRFIELD*     FAIR      72  70  93 CALM      30.05R
HARRISBURG*    FAIR      67  67  99 CALM      30.07R
ROBINSON*      FAIR      71  70  95 CALM      30.06S
CARMI*         FAIR      71  71  99 S3        30.05R
$$

ABBREVIATIONS USED IN REMARKS
   TC - TEMPERATURE IN CELSIUS
  WCI - WIND CHILL INDEX
   HX - HEAT INDEX
  VSB - VISIBILITY
$$





USA.gov is the U.S. government's official web portal to all federal, state and local government web resources and services.